Hauptseite
METAR-TAF:

METAR-TAF

Flughäfen :

Kinloss Barracks

Kinloss, Schottland

Breite: 57-39N, Länge: 003-34W, Höhe: 7 m

Beobachtung

Neuester Wetterbericht von vor 26 Minuten, um 18:50 UTC
Wind 8 kt aus Ost/Nordost
Temperatur 15°C
Luftfeuchtigkeit 72%
Luftdruck 1016 hPa
Sichtweite 10 km oder mehr

METAR: EGQK 191850Z AUTO 06008KT 9999 SCT041/// 15/10 Q1016

Zeit: 20:16 (19:16 UTC)


TAF: fehlend

Wetterbeobachtungen und Prognosen von mehr als 4000 Flughäfen (METAR und TAF Bericht).

Die verfügbaren Stationen werden durch gelbe und rote Markierungen auf der Karte dargestellt.

Führen Sie die Maus auf sie, um den Namen der Station zu sehen.

Darauf klicken, um die Beobachtung von Wetterbeobachtungen und Prognosen zu sehen.

Um die Karte zu ändern : klicken Sie auf den grünen Tasten mit einem schwarzen Kreuz Zum Vergrößern, auf den grünen Button mit einem Gedankenstrich zu verkleinern, oder auf die grünen Pfeile für benachbarte Karten.


METAR-TAF: